Regional Weather Roundup
Issued by NWS

Home | Current Version | Previous Version | Text Only | Print | Product List | Glossary Off
Versions: 1 2 3 4 5 6 7 8 9 10 11 12 13 14 15 16 17 18 19 20 21 22 23 24 25 26 27 28 29 30 31 32 33 34 35 36 37 38 39 40 41 42 43 44 45 46 47 48 49 50

000
ASUS43 KOAX 110410
RWRNE

WEATHER ROUNDUP FOR NEBRASKA
NATIONAL WEATHER SERVICE OMAHA NE
1000 PM CST WED FEB 10 2016

NOTES: SATELLITE DATA IS BEING USED TO AUGMENT CLOUD COVER ABOVE
       12000 FEET.
       "FAIR" INDICATES FEW OR NO CLOUDS BELOW 12,000 FEET WITH NO
       SIGNIFICANT WEATHER AND/OR OBSTRUCTIONS TO VISIBILITY.

  * THESE STATIONS DO NOT REPORT WEATHER SUCH AS RAIN...SNOW OR FOG.

NEZ001>004-019>022-054>056-110500-
NEBRASKA PANHANDLE

CITY           SKY/WX    TMP DP  RH WIND       PRES   REMARKS
SCOTTSBLUFF    CLOUDY    38  25  59 NW10      30.13R WCI  31
ALLIANCE       CLOUDY    30  26  85 W8        30.10R WCI  22
CHADRON        CLOUDY    30  24  78 W5        30.11R WCI  25
KIMBALL        CLEAR     38  25  59 NW15      30.16R WCI  29
SIDNEY         CLEAR     37  27  67 W16       30.12S WCI  28
$$

NEZ057>060-069>072-079>082-110500-
SOUTHWEST NEBRASKA

CITY           SKY/WX    TMP DP  RH WIND       PRES   REMARKS
NORTH PLATTE   CLOUDY    39  28  64 NE9       30.07R WCI  33
IMPERIAL       CLOUDY    41  28  60 NW12      30.08R
LEXINGTON      PTCLDY    37  29  74 NE3       30.07R
MCCOOK         PTCLDY    37  30  75 W5        30.07R WCI  33
OGALLALA       CLOUDY    39  29  65 NW8       30.08R WCI  34
$$

NEZ005>010-023>029-035>040-094-110500-
NORTH CENTRAL NEBRASKA

CITY           SKY/WX    TMP DP  RH WIND       PRES   REMARKS
VALENTINE      CLOUDY    31  27  85 N12       30.13R WCI  22
AINSWORTH      CLOUDY    32  28  86 N12       30.11R WCI  23
BROKEN BOW     CLOUDY    34  30  85 N7        30.08R WCI  28
O`NEILL        CLOUDY    27  25  92 N5        30.13R WCI  21
ORD            CLEAR     28  25  88 NE5       30.10R WCI  23
THEDFORD       CLEAR     34  30  86 N5        30.11R WCI  30
$$

NEZ041-046>049-061>064-073>077-083>087-110500-
SOUTH CENTRAL NEBRASKA

CITY           SKY/WX    TMP DP  RH WIND       PRES   REMARKS
GRAND ISLAND   CLEAR     28  24  85 NE9       30.11R WCI  19
AURORA         CLEAR     29  26  88 N8        30.10R WCI  21
HASTINGS       PTCLDY    32  27  81 N9        30.08R WCI  24
HEBRON         PTCLDY    33  29  86 N8        30.07R WCI  26
HOLDREGE       PTCLDY    37  30  74 NE12      30.06R WCI  30
KEARNEY *      PTCLDY    34  28  80 NE10      30.08R WCI  26
YORK           PTCLDY    28  25  86 NE12      30.09R WCI  18
$$

NEZ011>018-030>034-042>045-110500-
NORTHEAST NEBRASKA

CITY           SKY/WX    TMP DP  RH WIND       PRES   REMARKS
NORFOLK        CLOUDY    22  18  85 NE6       30.13R WCI  14
ALBION         CLOUDY    26  23  87 NE5       30.12R WCI  21
BLAIR          CLOUDY    22  18  86 NE14      30.11R WCI   9
COLUMBUS *     CLOUDY    23  12  63 NE9       30.13S WCI  13
FREMONT        CLOUDY    22  17  83 NE3       30.15R
TEKAMAH        CLOUDY    20  15  81 NE10      30.16R WCI   9
WAYNE          CLOUDY    19  15  86 NE6       30.16R WCI  11
$$

NEZ050>053-065>068-078-088>093-110500-
SOUTHEAST NEBRASKA

CITY           SKY/WX    TMP DP  RH WIND       PRES   REMARKS
LINCOLN        CLEAR     25  21  85 NE14      30.12R WCI  13
OMAHA EPPLEY   CLOUDY    23  17  78 NE10      30.15R WCI  12
BEATRICE       PTCLDY    32  27  83 N13       30.07R WCI  22
FALLS CITY     CLOUDY    30  22  72 NE9       30.07R WCI  22
NEBRASKA CITY  CLEAR     27  24  89 NE10      30.09R WCI  17
PLATTSMOUTH    CLOUDY    25  21  85 NE14      30.11R WCI  13
$$

NEZ044-045-051>053-067-110500-
OMAHA AREA

CITY           SKY/WX    TMP DP  RH WIND       PRES   REMARKS
OMAHA EPPLEY   CLOUDY    23  17  78 NE10      30.15R WCI  12
BLAIR          CLOUDY    22  18  86 NE14      30.11R WCI   9
FREMONT        CLOUDY    22  17  83 NE3       30.15R
MILLARD        CLOUDY    25  19  79 CALM      30.14R
OFFUTT AFB     MOCLDY    23  19  86 NE13      30.14R WCI  11
PLATTSMOUTH    CLOUDY    25  21  85 NE14      30.11R WCI  13
WAHOO          CLOUDY    23  19  86 N10       30.13R WCI  12
$$



USA.gov is the U.S. government's official web portal to all federal, state and local government web resources and services.